Location: Chippewa Lake
(41.0698°N, 81.9010°W)
Time: 02:04:50
(UTC+00:00)

Cosmos 1898 Rocket - Pass Details

Date: 09 May 2021
Orbit: 753 x 784 km, 74.0° (Epoch: 24 June)

Event Time Altitude Azimuth Distance (km) Brightness Sun altitude
Exits shadow 03:58:26 40° 56° (NE) 1,128 4.3 -28.2°
Drops below altitude 10° 04:02:08 10° 29° (NNE) 2,340 6.4 -28.5°
Sets 04:04:34 0° 25° (NNE) 3,276 7.4 -28.7°
